{"data":{"norad_id":64804,"epoch":"2026-09-20T14:31:53.674176Z","epoch_age_seconds":118460,"freshness":"FRESH","line1":"1 64804U 25150Q   26263.60548234  .00001753  00000+0  15468-3 0  9998","line2":"2 64804  70.0021   2.9857 0003659 270.2486  89.8254 14.98334770 65718","mean_motion":14.9833477,"eccentricity":0.0003659,"inclination_deg":70.0021,"raan_deg":2.9857,"arg_perigee_deg":270.2486,"mean_anomaly_deg":89.8254,"bstar":0.00015468,"rev_number":6571,"period_min":96.106693165774,"perigee_km":569.49806997055,"apogee_km":574.58421033351,"semimajor_km":6950.178140152,"source":"CELESTRAK","updated_at":"2026-09-21T09:00:35.445471Z"}}